Погода в Великих Мостах

Украина / Львовская область     50°14′20″N   24°08′45″E
темп.,
°C
ветер,
м/с
пор.,
м/с
влажн.,
%
обл.,
%
осадки,
мм/ч
давл.,
гПа
погр.,
м
26 января, вт
вт2623:00−1зсз81396100 0.8 998761
02:000зсз81497100 2.7 999904
05:00−1зсз101695100 2.6 1001996
08:00−1зсз91692100 3.9 1003889
11:00−1з91486100 0.1 1005956
14:000з81386100 0.1 10071084
17:00−1з71386100 0.1 1008711
20:00−3з6138987 0.1 1009459
27 января, ср
ср2723:00−3з613918 0.0 1010406
02:00−4з5129316 0.0 1011359
05:00−2з599295 0.1 1011557
08:00−2з5109397 0.1 1011553
11:00−1зсз598997 0.0 1011749
14:000сз478999 0.2 1010727
17:00−2сз3794100 0.1 1010227
20:00−4сз3995100 0.1 1010306
28 января, чт
чт2823:00−3сз4995100 0.1 1010366
02:00−4сз5996100 0.3 1010333
05:00−4сз51094100 0.2 1009416
08:00−5сз4995100 0.2 1008287
11:00−3сз479095 0.1 1008417
14:00−2зсз478995 0.1 1006604
17:00−4з349054 0.0 100480
20:00−3зюз4109449 0.1 1003280
29 января, пт
пт2923:00−2з5129152 0.0 1001470
02:00−4з5119376 0.1 1000466
05:00−5з41093100 0.0 999308
08:00−6з4109462 0.0 998251
11:00−3з6108620 0.0 999831
14:00−2з7108356 0.1 9981046
17:00−3з51089100 0.1 999563
20:00−5з4119160 0.1 1000295
30 января, сб
сб3023:00−5зюз5119048 0.0 1001293
02:00−6з499371 0.0 1001258
05:00−6з4994100 0.0 1001250
08:00−5з4895100 0.0 1000257
11:00−3з4691100 0.1 1000447
14:00−2з4589100 0.1 1000573
17:00−3зюз3796100 0.3 999314
20:00−4зюз389398 0.5 1001233